Location: Unspecified
(0.0000°N, 0.0000°E)
Time: 14:23:30
(UTC+00:00)

Tiros 1 despin weight - All Passes

Search period start: 30 October 2014 00:00
Search period end: 09 November 2014 00:00
Orbit: 600 x 652 km, 48.2° (Epoch: 29 October)

Date Brightness Start Highest point End Pass type
(mag) Time Alt. Az. Time Alt. Az. Time Alt. Az.
30 Oct - 01:46:30 10° S 01:50:35 29° SE 01:54:39 10° ENE night (unlit)
30 Oct - 03:28:30 10° WSW 03:32:10 22° NW 03:35:50 10° N night (unlit)
30 Oct - 13:55:53 10° NNW 14:00:09 46° NE 14:04:23 10° SE daylight
30 Oct - 15:39:55 10° WSW 15:41:43 12° SW 15:43:32 10° SSW daylight
31 Oct - 02:04:56 10° SW 02:09:39 83° SE 02:14:23 10° NE night (unlit)
31 Oct - 12:37:10 10° NE 12:37:35 10° NE 12:38:01 10° NE daylight
31 Oct - 14:14:51 10° NW 14:19:12 56° SW 14:23:32 10° SSE daylight
01 Nov - 00:43:48 10° S 00:47:07 19° SE 00:50:27 10° E night (unlit)
01 Nov - 02:24:27 10° WSW 02:28:43 34° NW 02:32:59 10° NNE night (unlit)
01 Nov - 12:52:52 10° N 12:56:44 29° NE 13:00:35 10° ESE daylight
01 Nov - 14:35:06 10° W 14:38:16 19° SW 14:41:27 10° S daylight
02 Nov - 01:01:38 10° SSW 01:06:12 52° SE 01:10:47 10° NE night (unlit)
02 Nov - 02:45:48 10° WNW 02:47:50 13° NW 02:49:52 10° NNW night (unlit)
02 Nov - 13:11:19 10° NW 13:15:46 89° NE 13:20:13 10° SE daylight
02 Nov - 23:41:45 10° SSE 23:43:36 12° SE 23:45:28 10° ESE night (unlit)
03 Nov - 01:20:39 10° SW 01:25:14 53° NW 01:29:50 10° NNE night (unlit)
03 Nov - 11:50:06 10° N 11:53:15 19° NE 11:56:24 10° E daylight
03 Nov - 13:30:54 10° WNW 13:34:48 30° SW 13:38:41 10° S daylight
03 Nov - 23:58:30 10° SSW 00:02:42 33° SE 00:06:56 10° ENE night (unlit)
04 Nov - 01:40:56 10° W 01:44:18 19° NW 01:47:40 10° N night (unlit)
04 Nov - 12:07:56 10° NNW 12:12:18 54° NE 12:16:39 10° SE daylight
04 Nov - 13:53:03 10° WSW 13:53:53 10° SW 13:54:44 10° SW daylight
05 Nov - 00:17:02 10° SW 00:21:43 85° NW 00:26:26 10° NE night (unlit)
05 Nov - 10:47:57 10° NNE 10:49:43 12° NE 10:51:28 10° ENE daylight
05 Nov - 12:27:00 10° NW 12:31:18 47° SW 12:35:35 10° SSE daylight
05 Nov - 22:55:37 10° S 22:59:10 21° SE 23:02:43 10° E night (unlit)
06 Nov - 00:36:40 10° WSW 00:40:44 29° NW 00:44:50 10° N night (unlit)
06 Nov - 11:04:43 10° NNW 11:08:47 34° NE 11:12:50 10° ESE daylight
06 Nov - 12:47:27 10° W 12:50:20 17° SW 12:53:12 10° S daylight
06 Nov - 23:13:35 10° SSW 23:18:10 60° SE 23:22:48 10° NE night (unlit)
07 Nov - 00:58:42 10° WNW 00:59:50 11° NW 01:00:57 10° NW night (unlit)
07 Nov - 11:23:17 10° NW 11:27:47 79° SW 11:32:14 10° SE daylight
07 Nov - 21:53:11 10° SSE 21:55:34 14° SE 21:57:57 10° E night (unlit)
07 Nov - 23:32:42 10° SW 23:37:09 46° NW 23:41:39 10° NNE night (unlit)
08 Nov - 10:01:44 10° N 10:05:13 22° NE 10:08:41 10° E daylight
08 Nov - 11:43:00 10° WNW 11:46:46 26° SW 11:50:30 10° S daylight
08 Nov - 22:10:18 10° SSW 22:14:35 37° SE 22:18:54 10° ENE night (unlit)
08 Nov - 23:53:11 10° W 23:56:11 17° NW 23:59:12 10° N night (unlit)
